[[{"header":{"parameterUnit":"m.s-1","parameterCategory":1,"la1":30.2991,"la2":30.254,"lo1":-89.0895,"lo2":-89.0444,"dy":0.0017,"dx":0.0017,"nx":28,"ny":28,"refTime":"2025-05-19T21:00:00:Z","depth":0,"parameterNumber":2,"parameterNumberName":"U-component_of_WINDS"},"data":[0,0,0,0,0,0,0,0,0,0,0,0,0,0,0,0,0,0,0,0,0,0,0,0,0,0,0,0,0,0,0,0,0,0,0,0,0,0,0,0,0,0,0,0,0,0,0,0,0,0,0,0,0,0,0,0,0,0,-1.5034,-1.5033,0,-1.4976,-1.4975,-1.4974,-1.4925,-1.4925,-1.4924,-1.4924,-1.4866,-1.4865,-1.4864,0,0,0,0,0,0,0,0,0,0,0,0,0,-1.5105,-1.5104,-1.5034,-1.5033,-1.5032,-1.4976,-1.4975,-1.4974,-1.4925,-1.4925,-1.4924,-1.4923,-1.4867,-1.4865,-1.4864,0,0,0,0,0,0,0,0,0,0,0,0,0,-1.5063,-1.5103,-1.5034,-1.5001,-1.4997,-1.4976,-1.4975,-1.4974,-1.4925,-1.4925,-1.4924,-1.4923,-1.4867,-1.4866,-1.4864,-1.4871,0,0,-1.4859,-1.4859,0,0,0,0,0,0,0,0,-1.5066,-1.5061,-1.5006,-1.5003,-1.4999,-1.4957,-1.4979,-1.494,-1.4926,-1.4953,-1.4923,-1.4923,-1.4897,-1.4893,-1.4884,-1.4869,-1.4866,-1.4859,-1.4858,-1.4858,-1.4857,0,0,0,0,0,0,0,-1.5069,-1.5063,-1.5011,-1.5006,-1.5001,-1.499,-1.4983,-1.4971,-1.493,-1.495,-1.4947,-1.494,-1.4895,-1.4886,-1.4882,-1.4865,-1.4859,-1.4858,-1.4857,-1.4856,-1.4853,-1.4854,0,0,0,0,0,0,-1.5076,-1.5066,-1.5013,-1.5009,-1.5031,-1.4989,-1.4982,-1.4971,-1.493,-1.4923,-1.4941,-1.4938,-1.4889,-1.4884,-1.488,-1.4886,-1.4858,-1.4856,-1.4855,-1.4853,-1.4854,-1.4855,0,0,0,0,0,0,-1.5078,-1.5072,-1.5015,-1.5036,-1.5028,-1.4989,-1.4978,-1.4971,-1.4961,-1.4923,-1.4916,-1.4939,-1.4888,-1.4882,-1.4874,-1.4883,-1.4856,-1.4854,-1.4852,-1.4853,-1.4854,-1.4898,0,0,0,0,0,0,-1.508,-1.5073,-1.5074,-1.5037,-1.5027,-1.5009,-1.4978,-1.497,-1.4958,-1.4954,-1.4919,-1.4913,-1.4887,-1.4876,-1.4872,-1.4881,-1.4853,-1.4851,-1.4852,-1.4854,-1.4895,-1.49,-1.4904,0,0,0,0,0,-1.5083,-1.5089,-1.5075,-1.5068,-1.5028,-1.5009,-1.5004,-1.4973,-1.4959,-1.4961,-1.4937,-1.4914,-1.4883,-1.4876,-1.4871,-1.4879,-1.485,-1.4852,-1.4854,-1.4893,-1.4899,-1.4904,0,0,0,0,0,0,-1.5129,-1.5084,-1.5067,-1.5061,-1.5039,-1.5001,-1.5002,-1.4981,-1.4963,-1.496,-1.4924,-1.4916,-1.4912,-1.4895,-1.4887,-1.4884,-1.4864,-1.4865,-1.4895,-1.4901,-1.4905,-1.4909,-1.4852,0,0,0,0,0,-1.5139,-1.5127,-1.5088,-1.5086,-1.5076,-1.5041,-1.5032,-1.501,-1.4987,-1.4977,-1.4953,-1.4931,-1.4917,-1.4908,-1.4893,-1.4893,-1.4885,-1.4896,-1.4901,-1.4905,-1.4906,-1.4905,-1.491,-1.4861,-1.4861,-1.4861,0,0,-1.5159,-1.5132,-1.5127,-1.5095,-1.5076,-1.5065,-1.5034,-1.5023,-1.5015,-1.4976,-1.4966,-1.4948,-1.4922,-1.4917,-1.4914,-1.4903,-1.4918,-1.4907,-1.4911,-1.4909,-1.4908,-1.4912,-1.4917,-1.4862,-1.4862,-1.4862,0,0,-1.5188,-1.5167,-1.5164,-1.5145,-1.5116,-1.5093,-1.5092,-1.5057,-1.5043,-1.5033,-1.5004,-1.4994,-1.497,-1.4952,-1.494,-1.4965,-1.4944,-1.4962,-1.4986,-1.4985,-1.4989,-1.4993,-1.5001,-1.5005,-1.4963,-1.4963,-1.4963,0,-1.5217,-1.5198,-1.5165,-1.5156,-1.5143,-1.5108,-1.5104,-1.5088,-1.5056,-1.5049,-1.5037,-1.5006,-1.4986,-1.4977,-1.4984,-1.4975,-1.4974,-1.4965,-1.4991,-1.4994,-1.4997,-1.5005,-1.5008,-1.4965,-1.4965,-1.4965,-1.4965,0,-1.5234,-1.5221,-1.5222,-1.5191,-1.5179,-1.5173,-1.5141,-1.5132,-1.5113,-1.5091,-1.5082,-1.5057,-1.5036,-1.5032,-1.5013,-1.5021,-1.5015,-1.4998,-1.4976,-1.5004,-1.5011,-1.5014,-1.4969,-1.4968,-1.4967,-1.4967,0,0,-1.529,-1.5242,-1.5243,-1.5228,-1.5194,-1.5185,-1.5178,-1.5157,-1.5151,-1.513,-1.5124,-1.5105,-1.5089,-1.5076,-1.5054,-1.5054,-1.5076,-1.5037,-1.5035,-1.5044,-1.5084,-1.5097,-1.5101,-1.5062,-1.5062,-1.5063,-1.5086,0,-1.5314,-1.5298,-1.5269,-1.5263,-1.5252,-1.5218,-1.5213,-1.5192,-1.5172,-1.516,-1.5139,-1.5126,-1.5106,-1.5097,-1.5096,-1.5073,-1.5083,-1.5071,-1.5056,-1.5056,-1.5062,-1.5104,-1.5118,-1.5141,-1.5089,-1.5089,-1.5089,0,-1.5339,-1.532,-1.5313,-1.528,-1.5274,-1.5269,-1.5248,-1.5237,-1.5214,-1.5199,-1.5185,-1.5162,-1.5154,-1.5135,-1.5124,-1.5117,-1.5109,-1.5098,-1.5098,-1.5094,-1.5073,-1.5102,-1.5148,-1.5151,-1.5093,-1.5093,-1.5093,0,-1.5381,-1.5354,-1.5346,-1.5335,-1.5296,-1.5294,-1.5278,-1.5253,-1.5243,-1.5225,-1.5218,-1.52,-1.519,-1.5177,-1.515,-1.5139,-1.5142,-1.5121,-1.5131,-1.5131,-1.5132,-1.5132,-1.5177,-1.5128,-1.5128,-1.5128,-1.5128,0,-1.541,-1.5407,-1.5364,-1.5359,-1.5355,-1.5322,-1.5319,-1.5301,-1.5279,-1.5271,-1.5242,-1.5235,-1.52,-1.5189,-1.5168,-1.5163,-1.5159,-1.5147,-1.5142,-1.5149,-1.5151,-1.5143,-1.5141,-1.5129,-1.5129,-1.5129,-1.5129,0,-1.5455,-1.5426,-1.5415,-1.538,-1.5371,-1.537,-1.534,-1.5335,-1.5314,-1.5304,-1.53,-1.5267,-1.5253,-1.5225,-1.5204,-1.519,-1.5189,-1.5179,-1.5196,-1.5193,-1.5204,-1.5203,-1.5244,-1.5248,-1.5198,-1.5199,-1.5199,0,-1.5475,-1.5472,-1.5436,-1.5428,-1.5413,-1.5401,-1.539,-1.5358,-1.5348,-1.5322,-1.532,-1.5304,-1.5289,-1.5268,-1.5243,-1.5227,-1.5217,-1.5232,-1.5214,-1.5222,-1.5217,-1.5217,-1.5216,-1.5236,-1.5237,-1.5238,-1.5238,0,-1.5515,-1.55,-1.5485,-1.5465,-1.5453,-1.5436,-1.5417,-1.5413,-1.5377,-1.5368,-1.5353,-1.5341,-1.5319,-1.5304,-1.5284,-1.5269,-1.5248,-1.5244,-1.5245,-1.5253,-1.5263,-1.5258,-1.5207,-1.5243,-1.5243,-1.5242,-1.5242,-1.5242,-1.5547,-1.5543,-1.5517,-1.5501,-1.5484,-1.5468,-1.5461,-1.5439,-1.5426,-1.5405,-1.5388,-1.5374,-1.5352,-1.5323,-1.531,-1.5299,-1.5289,-1.5291,-1.5291,-1.5292,-1.5296,-1.5265,-1.5296,-1.5296,-1.5295,-1.5295,-1.5295,0,-1.5585,-1.5567,-1.5552,-1.5527,-1.5515,-1.5496,-1.5475,-1.5466,-1.5455,-1.5435,-1.5421,-1.5404,-1.539,-1.5364,-1.5347,-1.5344,-1.5334,-1.5341,-1.534,-1.5337,-1.5306,-1.5306,-1.5349,-1.5349,-1.5349,-1.5349,-1.5349,-1.5349,-1.5603,-1.5594,-1.5577,-1.556,-1.5542,-1.5528,-1.5518,-1.5503,-1.5487,-1.547,-1.5457,-1.544,-1.5418,-1.54,-1.5386,-1.5379,-1.5374,-1.5383,-1.5373,-1.5344,-1.5339,-1.5334,-1.5335,-1.5383,-1.5383,-1.5405,-1.5406,-1.5406]},{"header":{"parameterUnit":"m.s-1","parameterCategory":1,"la1":30.2991,"la2":30.254,"lo1":-89.0895,"lo2":-89.0444,"dy":0.0017,"dx":0.0017,"nx":28,"ny":28,"refTime":"2025-05-19T21:00:00:Z","depth":0,"parameterNumber":3,"parameterNumberName":"V-component_of_WINDS"},"data":[0,0,0,0,0,0,0,0,0,0,0,0,0,0,0,0,0,0,0,0,0,0,0,0,0,0,0,0,0,0,0,0,0,0,0,0,0,0,0,0,0,0,0,0,0,0,0,0,0,0,0,0,0,0,0,0,0,0,5.1682,5.1681,0,5.1594,5.1593,5.1592,5.1554,5.1554,5.1554,5.1554,5.1461,5.1458,5.1455,0,0,0,0,0,0,0,0,0,0,0,0,0,5.1814,5.1812,5.1682,5.1681,5.168,5.1595,5.1593,5.1592,5.1554,5.1554,5.1554,5.1554,5.1461,5.1458,5.1455,0,0,0,0,0,0,0,0,0,0,0,0,0,5.1744,5.1811,5.1682,5.1651,5.1647,5.1595,5.1593,5.1592,5.1554,5.1554,5.1554,5.1555,5.1462,5.1459,5.1455,5.1426,0,0,5.1443,5.1441,0,0,0,0,0,0,0,0,5.1748,5.174,5.1656,5.1653,5.1648,5.1585,5.1605,5.1536,5.1554,5.1589,5.1554,5.1555,5.1502,5.1494,5.1477,5.1422,5.1418,5.1442,5.144,5.1438,5.1437,0,0,0,0,0,0,0,5.1753,5.1743,5.1647,5.1655,5.165,5.164,5.163,5.1592,5.1545,5.1586,5.1583,5.1573,5.1499,5.1481,5.1475,5.1416,5.1442,5.1439,5.1436,5.1435,5.1336,5.1336,0,0,0,0,0,0,5.1764,5.1747,5.165,5.1645,5.17,5.1638,5.1627,5.1605,5.1545,5.1537,5.1573,5.1572,5.1488,5.148,5.1472,5.1436,5.1438,5.1435,5.1432,5.1336,5.1336,5.1336,0,0,0,0,0,0,5.1767,5.1755,5.1653,5.1695,5.1682,5.1635,5.1611,5.1604,5.1585,5.1536,5.1527,5.1564,5.1488,5.1477,5.1439,5.1432,5.1433,5.1429,5.1336,5.1336,5.1336,5.1364,0,0,0,0,0,0,5.1771,5.1757,5.1746,5.1695,5.1679,5.1623,5.1611,5.1602,5.1579,5.1577,5.1524,5.1516,5.1487,5.1445,5.1435,5.1427,5.1426,5.1337,5.1336,5.1336,5.1363,5.1364,5.1365,0,0,0,0,0,5.1776,5.1755,5.1745,5.1734,5.1665,5.1622,5.1613,5.1582,5.1579,5.1567,5.1536,5.1518,5.1435,5.1441,5.143,5.142,5.1337,5.1336,5.1336,5.1362,5.1364,5.1365,0,0,0,0,0,0,5.1803,5.1748,5.1736,5.1699,5.1666,5.1616,5.16,5.1584,5.1549,5.1548,5.1509,5.1498,5.1463,5.1438,5.1446,5.1391,5.1384,5.1381,5.1409,5.141,5.1411,5.1417,5.1423,0,0,0,0,0,5.1806,5.1777,5.173,5.1702,5.1686,5.1646,5.1626,5.1606,5.1569,5.1554,5.152,5.1484,5.145,5.1429,5.1394,5.136,5.1348,5.1348,5.1349,5.135,5.1348,5.1329,5.1329,5.1334,5.1334,5.1334,0,0,5.1809,5.1775,5.1759,5.1707,5.1678,5.1649,5.1634,5.1603,5.1581,5.1549,5.1511,5.1486,5.1443,5.1407,5.139,5.1385,5.1344,5.1349,5.135,5.1347,5.1329,5.1328,5.1328,5.1333,5.1333,5.1333,0,0,5.1801,5.1772,5.1747,5.172,5.1679,5.1653,5.1647,5.16,5.1583,5.1545,5.1521,5.1494,5.1436,5.1407,5.1385,5.1371,5.1353,5.1361,5.1366,5.1349,5.1348,5.1348,5.1344,5.1343,5.1359,5.1359,5.1359,0,5.181,5.1766,5.1735,5.1707,5.1685,5.1657,5.1632,5.1607,5.1556,5.1541,5.1537,5.1466,5.1435,5.1393,5.1391,5.1373,5.1366,5.1366,5.1351,5.135,5.1349,5.1345,5.1344,5.136,5.136,5.136,5.136,0,5.178,5.175,5.1734,5.1689,5.1665,5.1638,5.1603,5.1583,5.1565,5.154,5.1504,5.1467,5.1426,5.1414,5.1395,5.1371,5.1369,5.1359,5.1351,5.1351,5.1346,5.1344,5.1362,5.1361,5.1361,5.1361,0,0,5.1783,5.1725,5.1719,5.1699,5.1654,5.163,5.1602,5.1564,5.1548,5.1515,5.1491,5.1445,5.1436,5.1411,5.1389,5.1374,5.1367,5.1366,5.1364,5.1368,5.134,5.1348,5.1346,5.1356,5.1355,5.1355,5.1343,0,5.1769,5.172,5.1693,5.1655,5.1628,5.1603,5.158,5.1549,5.1526,5.1499,5.1473,5.1441,5.1431,5.1416,5.1401,5.1372,5.1361,5.1372,5.1333,5.1332,5.1345,5.1344,5.1351,5.1342,5.1341,5.1341,5.1341,0,5.1745,5.1715,5.1675,5.1635,5.1623,5.1602,5.1567,5.1542,5.1507,5.1492,5.1466,5.1445,5.1416,5.1412,5.1371,5.138,5.1363,5.1346,5.1345,5.134,5.1336,5.1339,5.1338,5.1337,5.1337,5.1338,5.1338,0,5.1753,5.1702,5.1673,5.1656,5.1609,5.1595,5.1575,5.1541,5.1521,5.149,5.1477,5.1442,5.1423,5.1397,5.1368,5.1368,5.1331,5.1324,5.1317,5.1318,5.1309,5.131,5.1307,5.1299,5.1299,5.1299,5.1299,0,5.1739,5.1716,5.1676,5.1658,5.1631,5.1602,5.1576,5.1554,5.1524,5.1501,5.1477,5.1456,5.1419,5.1393,5.137,5.1341,5.1332,5.1318,5.1313,5.1321,5.1322,5.1308,5.1308,5.1298,5.1298,5.1298,5.1299,0,5.1743,5.1715,5.1681,5.1641,5.1631,5.1613,5.1578,5.156,5.1537,5.1508,5.1499,5.1463,5.1432,5.1401,5.1357,5.1342,5.1314,5.1305,5.1326,5.1323,5.1318,5.1319,5.1305,5.1302,5.1296,5.1296,5.1296,0,5.1736,5.1718,5.1677,5.1661,5.1642,5.1615,5.1596,5.1567,5.1548,5.151,5.1496,5.1464,5.1436,5.1388,5.1357,5.1325,5.1316,5.1313,5.131,5.132,5.1317,5.1318,5.1317,5.1314,5.1314,5.1314,5.1314,0,5.1727,5.1715,5.1689,5.1659,5.1637,5.1612,5.1585,5.1573,5.1539,5.1519,5.1488,5.1467,5.1426,5.1394,5.1359,5.1337,5.132,5.1316,5.1313,5.132,5.1334,5.1328,5.1329,5.1316,5.1316,5.1316,5.1316,5.1315,5.1725,5.1709,5.1679,5.1651,5.1629,5.1606,5.1588,5.1564,5.1538,5.1504,5.1488,5.1457,5.1426,5.1378,5.1357,5.1333,5.1328,5.1323,5.1322,5.1321,5.1324,5.1338,5.1326,5.1326,5.1326,5.1326,5.1326,0,5.1715,5.1696,5.1671,5.1637,5.1616,5.1604,5.1575,5.1558,5.1532,5.1505,5.148,5.1446,5.1416,5.1385,5.1353,5.134,5.1332,5.1333,5.1333,5.1329,5.1329,5.1335,5.134,5.134,5.134,5.134,5.134,5.134,5.1708,5.1681,5.1667,5.1629,5.1609,5.1581,5.1566,5.1544,5.1523,5.1487,5.1463,5.1444,5.1415,5.1383,5.1355,5.1347,5.1336,5.134,5.1329,5.133,5.1329,5.1327,5.1333,5.1338,5.1338,5.1332,5.1332,5.1332]}]]